TimeCDT,TemperatureF,Dew PointF,Humidity,Sea Level PressureIn,VisibilityMPH,Wind Direction,Wind SpeedMPH,Gust SpeedMPH,PrecipitationIn,Events,Conditions,WindDirDegrees,DateUTC
12:53 AM,68.0,62.1,81,30.07,10.0,Calm,Calm,-,N/A,,Clear,0,2013-09-16 05:53:00
1:53 AM,64.9,61.0,87,30.07,10.0,Calm,Calm,-,N/A,,Clear,0,2013-09-16 06:53:00
2:53 AM,64.0,60.1,87,30.06,10.0,ENE,3.5,-,N/A,,Clear,70,2013-09-16 07:53:00
3:53 AM,63.0,60.1,90,30.06,10.0,Calm,Calm,-,N/A,,Clear,0,2013-09-16 08:53:00
4:53 AM,62.1,59.0,90,30.06,10.0,NE,3.5,-,N/A,,Clear,40,2013-09-16 09:53:00
5:53 AM,63.0,60.1,90,30.08,10.0,ENE,3.5,-,N/A,,Clear,70,2013-09-16 10:53:00
6:53 AM,64.9,61.0,87,30.09,10.0,ENE,4.6,-,N/A,,Clear,70,2013-09-16 11:53:00
7:53 AM,68.0,62.1,81,30.11,10.0,ENE,4.6,-,N/A,,Clear,70,2013-09-16 12:53:00
8:53 AM,75.0,64.0,69,30.12,10.0,Calm,Calm,-,N/A,,Clear,0,2013-09-16 13:53:00
9:53 AM,81.0,69.1,67,30.13,10.0,South,3.5,-,N/A,,Clear,180,2013-09-16 14:53:00
10:53 AM,84.9,70.0,61,30.12,10.0,Calm,Calm,-,N/A,,Clear,0,2013-09-16 15:53:00
11:53 AM,89.1,66.9,48,30.11,10.0,West,4.6,-,N/A,,Clear,260,2013-09-16 16:53:00
12:53 PM,91.0,62.1,38,30.10,10.0,NNW,4.6,-,N/A,,Partly Cloudy,340,2013-09-16 17:53:00
1:53 PM,93.0,64.0,38,30.07,10.0,Variable,3.5,-,N/A,,Scattered Clouds,0,2013-09-16 18:53:00
2:53 PM,93.9,63.0,36,30.05,10.0,North,6.9,-,N/A,,Clear,360,2013-09-16 19:53:00
3:53 PM,91.9,62.1,37,30.03,10.0,North,12.7,19.6,N/A,,Clear,350,2013-09-16 20:53:00
4:53 PM,90.0,61.0,38,30.03,10.0,NNE,10.4,-,N/A,,Clear,20,2013-09-16 21:53:00
5:53 PM,82.9,64.9,54,30.03,10.0,Calm,Calm,-,N/A,,Clear,0,2013-09-16 22:53:00
6:53 PM,79.0,68.0,69,30.03,10.0,Calm,Calm,-,N/A,,Clear,0,2013-09-16 23:53:00
7:53 PM,73.0,66.9,81,30.04,10.0,Calm,Calm,-,N/A,,Clear,0,2013-09-17 00:53:00
8:53 PM,72.0,66.0,81,30.05,10.0,Calm,Calm,-,N/A,,Clear,0,2013-09-17 01:53:00
9:53 PM,70.0,64.9,84,30.07,10.0,NE,4.6,-,N/A,,Clear,40,2013-09-17 02:53:00
10:53 PM,68.0,64.0,87,30.09,10.0,NNE,5.8,-,N/A,,Clear,20,2013-09-17 03:53:00
11:53 PM,68.0,63.0,84,30.10,10.0,NNE,4.6,-,N/A,,Clear,30,2013-09-17 04:53:00